Tracking 22124 objects as of 25-Jan-2021
HD Live streaming from Space Station
objects crossing your sky now

STARLINK-1694

Track STARLINK-1694 now!
10-day predictions
STARLINK-1694 is classified as:


NORAD ID: 46544
Int'l Code: 2020-070N
Perigee: 565.1 km
Apogee: 568.5 km
Inclination: 53.1 °
Period: 95.9 minutes
Semi major axis: 6937 km
RCS: Unknown
Launch date: October 6, 2020
Source: United States (US)
Launch site: AIR FORCE EASTERN TEST RANGE (AFETR)
aabbcc
Your satellite tracking list
Your tracking list is empty




NASA's NSSDC Master Catalog

Two Line Element Set (TLE):
1 46544U 20070N   21024.91667824 -.00026939  00000-0 -20032-2 0  9994
2 46544  53.0559 274.9691 0002492  75.0937 284.1429 15.02340306  1755
Source of the keplerian elements: AFSPC